Weather History for LIRN - February, 2013

Change the Weather History Date:

Wednesday, February 20, 2013

  Actual Average Record
Temperature  
Mean Temperature 45 °F -  
Max Temperature 55 °F 58 °F 68 °F (2009)
Min Temperature 35 °F 42 °F 32 °F (2003)
Degree Days  
Heating Degree Days 20    
Moisture  
Dew Point 36 °F    
Average Humidity 67    
Maximum Humidity 87    
Minimum Humidity 47    
Precipitation  
Precipitation 0.00 in 0.12 in - ()
Sea Level Pressure  
Sea Level Pressure 29.95 in    
Wind  
Wind Speed 3 mph ()    
Max Wind Speed 9 mph    
Max Gust Speed -    
Visibility 6.1 miles    
Events      
Averages and records for this station are not official NWS values.
T = Trace of Precipitation, MM = Missing Value Source: Averaged Metar Reports

Daily Weather History Graph

Daily Weather History Graph

Search for Another Location

Airport or City:

Trip Planner

Search our weather history database for the weather conditions in past years. The results will help you decide how hot, cold, wet, or windy it might be!

Date:

Astronomy

Feb. 20, 2013 Rise Set
Actual Time 6:50 AM CET 5:43 PM CET
Civil Twilight 6:22 AM CET 6:11 PM CET
Nautical Twilight 5:50 AM CET 6:43 PM CET
Astronomical Twilight 5:18 AM CET 7:15 PM CET
Moon 12:48 PM CET (2/20) 2:58 AM CET (2/20)
Length of Visible Light 11h 49m
Length of Day
10h 53m
Waxing Gibbous, 74% of the Moon is Illuminated
Feb 20
Waxing Gibbous
Feb 25
Full
Mar 4
Last Quarter
Mar 11
New
Mar 19
First Quarter

Hourly Weather History & Observations

Time (CET) Temp. Windchill Dew Point Humidity Pressure Visibility Wind Dir Wind Speed Gust Speed Precip Events Conditions
12:20 AM 39.2 °F - 33.8 °F 81% 29.98 in 6.2 mi Variable 1.2 mph - N/A   Partly Cloudy
1:20 AM 35.6 °F - 32.0 °F 87% 29.98 in 6.2 mi SSW 1.2 mph - N/A   Partly Cloudy
1:50 AM 41.0 °F - 35.6 °F 81% 29.98 in 6.2 mi Variable 1.2 mph - N/A   Scattered Clouds
2:20 AM 41.0 °F 39.0 °F 35.6 °F 81% 29.98 in 6.2 mi West 3.5 mph - N/A   Scattered Clouds
2:50 AM 39.2 °F - 35.6 °F 87% 29.98 in 6.2 mi NNE 2.3 mph - N/A   Partly Cloudy
3:20 AM 39.2 °F - 33.8 °F 81% 29.98 in 6.2 mi Variable 2.3 mph - N/A   Partly Cloudy
3:50 AM 39.2 °F - 33.8 °F 81% 29.98 in - Variable 1.2 mph - N/A   Clear
4:20 AM 39.2 °F - 33.8 °F 81% 29.98 in - Variable 1.2 mph - N/A   Clear
4:50 AM 41.0 °F - 35.6 °F 81% 29.98 in - South 1.2 mph - N/A   Clear
5:20 AM 39.2 °F - 35.6 °F 87% 29.98 in - Variable 2.3 mph - N/A   Clear
5:50 AM 39.2 °F 37.0 °F 35.6 °F 87% 29.98 in 6.2 mi WSW 3.5 mph - N/A   Scattered Clouds
6:20 AM 41.0 °F - 35.6 °F 81% 29.98 in 6.2 mi West 2.3 mph - N/A   Scattered Clouds
6:50 AM 42.8 °F - 35.6 °F 76% 29.98 in 6.2 mi Variable 1.2 mph - N/A   Mostly Cloudy
7:20 AM 41.0 °F - 35.6 °F 81% 29.98 in 6.2 mi Variable 1.2 mph - N/A   Scattered Clouds
7:50 AM 42.8 °F - 37.4 °F 81% 29.98 in 6.2 mi Variable 2.3 mph - N/A   Mostly Cloudy
8:20 AM 46.4 °F - 39.2 °F 76% 29.98 in 6.2 mi North 2.3 mph - N/A   Scattered Clouds
8:50 AM 48.2 °F - 39.2 °F 71% 29.98 in 6.2 mi Variable 2.3 mph - N/A   Scattered Clouds
9:20 AM 51.8 °F - 39.2 °F 62% 29.98 in 6.2 mi Variable 2.3 mph - N/A   Scattered Clouds
9:50 AM 51.8 °F - 37.4 °F 58% 29.98 in 6.2 mi South 4.6 mph - N/A   Scattered Clouds
10:00 AM 53.6 °F - 35.6 °F 51% 29.98 in - North - - N/A   Unknown
10:20 AM 53.6 °F - 35.6 °F 51% 29.98 in 6.2 mi Variable 5.8 mph - N/A   Scattered Clouds
10:50 AM 51.8 °F - 37.4 °F 58% 29.98 in 6.2 mi SSW 6.9 mph - N/A   Mostly Cloudy
11:20 AM 53.6 °F - 35.6 °F 51% 29.98 in 6.2 mi SSW 8.1 mph - N/A   Mostly Cloudy
11:50 AM 53.6 °F - 37.4 °F 54% 29.98 in 6.2 mi South 8.1 mph - N/A   Mostly Cloudy
12:20 PM 53.6 °F - 37.4 °F 54% 29.98 in 6.2 mi SW 9.2 mph - N/A   Mostly Cloudy
12:50 PM 53.6 °F - 37.4 °F 54% 29.98 in 6.2 mi SW 9.2 mph - N/A   Mostly Cloudy
1:20 PM 53.6 °F - 35.6 °F 51% 29.95 in 6.2 mi SW 8.1 mph - N/A   Mostly Cloudy
1:50 PM 53.6 °F - 35.6 °F 51% 29.95 in 6.2 mi South 8.1 mph - N/A   Mostly Cloudy
2:20 PM 55.4 °F - 35.6 °F 47% 29.95 in 6.2 mi South 8.1 mph - N/A   Mostly Cloudy
2:50 PM 55.4 °F - 37.4 °F 51% 29.92 in 6.2 mi SSW 6.9 mph - N/A   Mostly Cloudy
3:20 PM 53.6 °F - 37.4 °F 54% 29.92 in 6.2 mi SSW 6.9 mph - N/A   Mostly Cloudy
3:50 PM 53.6 °F - 35.6 °F 51% 29.92 in 6.2 mi SW 8.1 mph - N/A   Scattered Clouds
4:20 PM 53.6 °F - 35.6 °F 51% 29.92 in 6.2 mi SSW 3.5 mph - N/A   Scattered Clouds
4:50 PM 51.8 °F - 35.6 °F 54% 29.92 in 6.2 mi SSW 4.6 mph - N/A   Partly Cloudy
5:20 PM 51.8 °F - 33.8 °F 50% 29.89 in 6.2 mi SW 4.6 mph - N/A   Partly Cloudy
6:20 PM 50.0 °F - 33.8 °F 54% 29.92 in 6.2 mi Variable 2.3 mph - N/A   Partly Cloudy
6:50 PM 50.0 °F - 33.8 °F 54% 29.92 in 6.2 mi Variable 2.3 mph - N/A   Partly Cloudy
7:20 PM 48.2 °F - 33.8 °F 58% 29.92 in 6.2 mi Calm Calm - N/A   Partly Cloudy
7:50 PM 48.2 °F - 33.8 °F 58% 29.92 in 6.2 mi Variable 1.2 mph - N/A   Partly Cloudy
8:20 PM 46.4 °F - 35.6 °F 66% 29.92 in 6.2 mi Variable 2.3 mph - N/A   Partly Cloudy
8:50 PM 46.4 °F 45.2 °F 35.6 °F 66% 29.92 in 6.2 mi NE 3.5 mph - N/A   Partly Cloudy
9:20 PM 46.4 °F 44.3 °F 37.4 °F 71% 29.92 in 6.2 mi NNE 4.6 mph - N/A   Partly Cloudy
9:50 PM 44.6 °F - 35.6 °F 71% 29.92 in 5.0 mi Variable 2.3 mph - N/A   Partly Cloudy
10:20 PM 42.8 °F - 35.6 °F 76% 29.92 in 5.0 mi Variable 1.2 mph - N/A   Partly Cloudy
10:50 PM 42.8 °F - 35.6 °F 76% 29.92 in 5.0 mi NNW 2.3 mph - N/A   Partly Cloudy
11:20 PM 41.0 °F 39.0 °F 35.6 °F 81% 29.92 in 5.0 mi WNW 3.5 mph - N/A   Partly Cloudy
11:50 PM 42.8 °F - 35.6 °F 76% 29.92 in 5.0 mi West 2.3 mph - N/A   Partly Cloudy